This is the latest recevied weather packets stored in our database for station/object DM4XI-13. If no packets are shown the sender has not sent any weather packets the latest 10 day(s).
| Time | Temp. | Humidity | Pressure | Rain* | Wind** | Luminosity | Snow |
|---|---|---|---|---|---|---|---|
| 1778259973 | 16.67° C | 51% | 1014.1 hPa | 0 mm | 0.89 m/s, 277° | 83 W/m² | - |
| 1778259912 | 16.67° C | 51% | 1014 hPa | 0 mm | 0.89 m/s, 337° | 85 W/m² | - |
| 1778259852 | 16.67° C | 51% | 1014 hPa | 0 mm | 0.89 m/s, 316° | 73 W/m² | - |
| 1778259790 | 16.67° C | 51% | 1014.1 hPa | 0 mm | 0.45 m/s, 220° | 56 W/m² | - |
| 1778259729 | 16.67° C | 52% | 1014 hPa | 0 mm | 0.45 m/s, 221° | 87 W/m² | - |
| 1778259668 | 16.67° C | 52% | 1014.1 hPa | 0 mm | 0.45 m/s, 254° | 91 W/m² | - |
| 1778259608 | 16.67° C | 51% | 1014 hPa | 0 mm | 0.89 m/s, 314° | 93 W/m² | - |
| 1778259546 | 16.67° C | 51% | 1014 hPa | 0 mm | 0.45 m/s, 274° | 92 W/m² | - |
| 1778259485 | 16.67° C | 51% | 1013.9 hPa | 0 mm | 0.45 m/s, 270° | 93 W/m² | - |
| 1778259424 | 16.67° C | 51% | 1014.2 hPa | 0 mm | 0.89 m/s, 290° | 95 W/m² | - |
| 1778259363 | 16.67° C | 51% | 1014.1 hPa | 0 mm | 0.89 m/s, 323° | 95 W/m² | - |
| 1778259302 | 16.67° C | 50% | 1013.9 hPa | 0 mm | 0.45 m/s, 342° | 101 W/m² | - |
| 1778259241 | 16.67° C | 51% | 1014.1 hPa | 0 mm | 0.45 m/s, 246° | 101 W/m² | - |
| 1778259180 | 17.22° C | 50% | 1014.2 hPa | 0 mm | 0.45 m/s, 230° | 65 W/m² | - |
| 1778259119 | 17.22° C | 49% | 1014.1 hPa | 0 mm | 0.45 m/s, 228° | 54 W/m² | - |
| 1778259058 | 17.22° C | 48% | 1014 hPa | 0 mm | 0.45 m/s, 212° | 44 W/m² | - |
| 1778258997 | 17.22° C | 49% | 1014 hPa | 0 mm | 0 m/s | 44 W/m² | - |
| 1778258936 | 17.22° C | 49% | 1014 hPa | 0 mm | 0 m/s | 45 W/m² | - |
| 1778258875 | 17.22° C | 50% | 1014 hPa | 0 mm | 0 m/s | 50 W/m² | - |
| 1778258814 | 17.22° C | 48% | 1014.2 hPa | 0 mm | 0.45 m/s, 64° | 111 W/m² | - |
| 1778258753 | 17.22° C | 48% | 1014.1 hPa | 0 mm | 0.89 m/s, 327° | 112 W/m² | - |
| 1778258692 | 17.22° C | 48% | 1014.2 hPa | 0 mm | 0 m/s | 80 W/m² | - |
| 1778258632 | 17.78° C | 48% | 1014 hPa | 0 mm | 0.45 m/s, 290° | 50 W/m² | - |
| 1778258570 | 17.78° C | 47% | 1014.2 hPa | 0 mm | 0.89 m/s, 339° | 50 W/m² | - |
| 1778258509 | 17.78° C | 47% | 1014.1 hPa | 0 mm | 0.45 m/s, 15° | 73 W/m² | - |
* Rain latest hour (hover to see other rain measurements)
** Current wind speed in m/s (hover to see current wind gust speed)